Wetterstation Vettwei-Soller: Standort 50 43' 54" Nord - 6 33' 24" Ost
Wetterdaten: aktuell Mittwoch, 26.01.2022 02:00
Datum Zeit Temp. A. Temp. A. min Temp. A. max Feuchte A. Luftdruck Regen Wind Richtung Richtung Sonnenschein Zeit Regen ET UV Solar Taupunkt Windchill Windben
26.01.2022 02:00 1,6 C 1,5 C 1,6 C 94 % 1034,4 hPa 0,0 l/m 3,8 km/h (1 Bft) NW 313 0 min 0 min 0,000 mm 0,0 UV-I 0 W/m 0,7 C 1,6 C 12,9 km/h (3 Bft)
26.01.2022 01:45 1,6 C 1,5 C 1,6 C 94 % 1034,2 hPa 0,0 l/m 2,6 km/h (1 Bft) W-NW 300 0 min 0 min 0,000 mm 0,0 UV-I 0 W/m 0,7 C 1,6 C 12,9 km/h (3 Bft)
26.01.2022 01:30 1,5 C 1,5 C 1,6 C 94 % 1034,2 hPa 0,0 l/m 2,3 km/h (1 Bft) NW 323 0 min 0 min 0,000 mm 0,0 UV-I 0 W/m 0,6 C 1,5 C 6,4 km/h (2 Bft)
26.01.2022 01:15 1,5 C 1,5 C 1,6 C 94 % 1034,2 hPa 0,0 l/m 2,9 km/h (1 Bft) W-NW 302 0 min 0 min 0,000 mm 0,0 UV-I 0 W/m 0,6 C 1,5 C 14,5 km/h (3 Bft)
26.01.2022 01:00 1,6 C 1,4 C 1,6 C 94 % 1034,3 hPa 0,0 l/m 2,6 km/h (1 Bft) W 279 0 min 0 min 0,000 mm 0,0 UV-I 0 W/m 0,7 C 1,6 C 12,9 km/h (3 Bft)
26.01.2022 00:45 1,4 C 1,4 C 1,5 C 94 % 1034,3 hPa 0,0 l/m 1,8 km/h (1 Bft) W 264 0 min 0 min 0,000 mm 0,0 UV-I 0 W/m 0,5 C 1,4 C 6,4 km/h (2 Bft)
26.01.2022 00:30 1,4 C 1,3 C 1,4 C 94 % 1034,2 hPa 0,0 l/m 1,6 km/h (1 Bft) SW 236 0 min 0 min 0,000 mm 0,0 UV-I 0 W/m 0,5 C 1,4 C 4,8 km/h (1 Bft)
26.01.2022 00:15 1,3 C 1,2 C 1,3 C 94 % 1034,1 hPa 0,0 l/m 0,8 km/h (0 Bft) SW 236 0 min 0 min 0,000 mm 0,0 UV-I 0 W/m 0,4 C 1,3 C 3,2 km/h (1 Bft)
26.01.2022 00:00 1,3 C 1,2 C 1,3 C 94 % 1034,0 hPa 0,0 l/m 0,4 km/h (0 Bft) SW 236 0 min 0 min 0,000 mm 0,0 UV-I 0 W/m 0,4 C 1,3 C 3,2 km/h (1 Bft)
25.01.2022 23:45 1,3 C 1,2 C 1,3 C 94 % 1034,1 hPa 0,0 l/m 1,0 km/h (0 Bft) SW 236 0 min 0 min 0,000 mm 0,0 UV-I 0 W/m 0,4 C 1,3 C 3,2 km/h (1 Bft)
25.01.2022 23:30 1,2 C 1,2 C 1,2 C 94 % 1034,2 hPa 0,0 l/m 0,3 km/h (0 Bft) SW 236 0 min 0 min 0,000 mm 0,0 UV-I 0 W/m 0,3 C 1,2 C 3,2 km/h (1 Bft)
25.01.2022 23:15 1,2 C 1,1 C 1,2 C 94 % 1034,3 hPa 0,0 l/m 0,3 km/h (0 Bft) SW 236 0 min 0 min 0,000 mm 0,0 UV-I 0 W/m 0,3 C 1,2 C 3,2 km/h (1 Bft)
25.01.2022 23:00 1,2 C 1,1 C 1,2 C 94 % 1034,2 hPa 0,0 l/m 0,1 km/h (0 Bft) SW 236 0 min 0 min 0,000 mm 0,0 UV-I 0 W/m 0,3 C 1,2 C 1,6 km/h (1 Bft)
25.01.2022 22:45 1,1 C 1,1 C 1,1 C 94 % 1034,2 hPa 0,0 l/m 1,3 km/h (1 Bft) SW 236 0 min 0 min 0,000 mm 0,0 UV-I 0 W/m 0,2 C 1,1 C 4,8 km/h (1 Bft)
25.01.2022 22:30 1,1 C 1,1 C 1,1 C 94 % 1034,3 hPa 0,0 l/m 1,9 km/h (1 Bft) SW 236 0 min 0 min 0,000 mm 0,0 UV-I 0 W/m 0,2 C 1,1 C 6,4 km/h (2 Bft)
25.01.2022 22:15 1,1 C 1,1 C 1,2 C 94 % 1034,3 hPa 0,0 l/m 1,8 km/h (1 Bft) SW 228 0 min 0 min 0,000 mm 0,0 UV-I 0 W/m 0,2 C 1,1 C 4,8 km/h (1 Bft)
25.01.2022 22:00 1,1 C 1,1 C 1,2 C 94 % 1034,3 hPa 0,0 l/m 1,7 km/h (1 Bft) SW 227 0 min 0 min 0,000 mm 0,0 UV-I 0 W/m 0,2 C 1,1 C 4,8 km/h (1 Bft)
25.01.2022 21:45 1,2 C 1,2 C 1,3 C 94 % 1034,3 hPa 0,0 l/m 2,9 km/h (1 Bft) SW 225 0 min 0 min 0,000 mm 0,0 UV-I 0 W/m 0,3 C 1,2 C 6,4 km/h (2 Bft)
25.01.2022 21:30 1,3 C 1,2 C 1,3 C 94 % 1034,3 hPa 0,0 l/m 1,9 km/h (1 Bft) S-SW 206 0 min 0 min 0,000 mm 0,0 UV-I 0 W/m 0,4 C 1,3 C 6,4 km/h (2 Bft)
25.01.2022 21:15 1,2 C 1,2 C 1,3 C 94 % 1034,3 hPa 0,0 l/m 2,5 km/h (1 Bft) S-SW 200 0 min 0 min 0,000 mm 0,0 UV-I 0 W/m 0,3 C 1,2 C 4,8 km/h (1 Bft)
25.01.2022 21:00 1,3 C 1,2 C 1,3 C 94 % 1034,3 hPa 0,0 l/m 2,5 km/h (1 Bft) S-SW 201 0 min 0 min 0,000 mm 0,0 UV-I 0 W/m 0,4 C 1,3 C 4,8 km/h (1 Bft)
25.01.2022 20:45 1,3 C 1,2 C 1,3 C 94 % 1034,3 hPa 0,0 l/m 1,9 km/h (1 Bft) S-SW 201 0 min 0 min 0,000 mm 0,0 UV-I 0 W/m 0,4 C 1,3 C 4,8 km/h (1 Bft)
25.01.2022 20:30 1,3 C 1,3 C 1,3 C 94 % 1034,3 hPa 0,0 l/m 1,8 km/h (1 Bft) S-SW 200 0 min 0 min 0,000 mm 0,0 UV-I 0 W/m 0,4 C 1,3 C 4,8 km/h (1 Bft)
25.01.2022 20:15 1,3 C 1,3 C 1,4 C 94 % 1034,3 hPa 0,0 l/m 3,1 km/h (1 Bft) S-SW 201 0 min 0 min 0,000 mm 0,0 UV-I 0 W/m 0,4 C 1,3 C 6,4 km/h (2 Bft)
25.01.2022 20:00 1,4 C 1,4 C 1,5 C 94 % 1034,3 hPa 0,0 l/m 2,4 km/h (1 Bft) S-SW 196 0 min 0 min 0,000 mm 0,0 UV-I 0 W/m 0,5 C 1,4 C 6,4 km/h (2 Bft)
25.01.2022 19:45 1,5 C 1,5 C 1,6 C 94 % 1034,4 hPa 0,0 l/m 2,4 km/h (1 Bft) S-SO 157 0 min 0 min 0,000 mm 0,0 UV-I 0 W/m 0,6 C 1,5 C 4,8 km/h (1 Bft)
25.01.2022 19:30 1,6 C 1,6 C 1,6 C 94 % 1034,3 hPa 0,0 l/m 0,4 km/h (0 Bft) S-SO 157 0 min 0 min 0,000 mm 0,0 UV-I 0 W/m 0,7 C 1,6 C 3,2 km/h (1 Bft)
25.01.2022 19:15 1,6 C 1,6 C 1,7 C 94 % 1034,2 hPa 0,0 l/m 0,1 km/h (0 Bft) S-SO 157 0 min 0 min 0,000 mm 0,0 UV-I 0 W/m 0,7 C 1,6 C 1,6 km/h (1 Bft)
25.01.2022 19:00 1,6 C 1,6 C 1,7 C 94 % 1034,1 hPa 0,0 l/m 0,7 km/h (0 Bft) S-SO 157 0 min 0 min 0,000 mm 0,0 UV-I 0 W/m 0,7 C 1,6 C 3,2 km/h (1 Bft)
25.01.2022 18:45 1,6 C 1,6 C 1,7 C 94 % 1034,2 hPa 0,0 l/m 0,7 km/h (0 Bft) S-SO 157 0 min 0 min 0,000 mm 0,0 UV-I 0 W/m 0,7 C 1,6 C 3,2 km/h (1 Bft)
25.01.2022 18:30 1,7 C 1,7 C 1,7 C 94 % 1034,3 hPa 0,0 l/m 1,1 km/h (1 Bft) S-SO 157 0 min 0 min 0,000 mm 0,0 UV-I 0 W/m 0,8 C 1,7 C 4,8 km/h (1 Bft)
25.01.2022 18:15 1,7 C 1,7 C 1,8 C 94 % 1034,1 hPa 0,0 l/m 0,9 km/h (0 Bft) S-SO 157 0 min 0 min 0,000 mm 0,0 UV-I 0 W/m 0,8 C 1,7 C 4,8 km/h (1 Bft)
25.01.2022 18:00 1,8 C 1,8 C 1,8 C 94 % 1034,1 hPa 0,0 l/m 1,5 km/h (1 Bft) S-SO 156 0 min 0 min 0,000 mm 0,0 UV-I 0 W/m 0,9 C 1,8 C 8,0 km/h (2 Bft)
25.01.2022 17:45 1,8 C 1,8 C 1,8 C 94 % 1034,1 hPa 0,0 l/m 0,1 km/h (0 Bft) S-SO 151 0 min 0 min 0,000 mm 0,0 UV-I 0 W/m 0,9 C 1,8 C 1,6 km/h (1 Bft)
25.01.2022 17:30 1,8 C 1,8 C 1,8 C 94 % 1034,2 hPa 0,0 l/m 1,8 km/h (1 Bft) S-SO 151 0 min 0 min 0,000 mm 0,0 UV-I 0 W/m 0,9 C 1,8 C 4,8 km/h (1 Bft)
25.01.2022 17:15 1,8 C 1,8 C 1,8 C 94 % 1034,2 hPa 0,0 l/m 1,7 km/h (1 Bft) S-SO 151 0 min 0 min 0,000 mm 0,0 UV-I 0 W/m 0,9 C 1,8 C 4,8 km/h (1 Bft)
25.01.2022 17:00 1,8 C 1,8 C 1,9 C 94 % 1034,3 hPa 0,0 l/m 1,4 km/h (1 Bft) S-SO 151 0 min 0 min 0,000 mm 0,0 UV-I 0 W/m 0,9 C 1,8 C 3,2 km/h (1 Bft)
25.01.2022 16:45 1,8 C 1,8 C 1,9 C 94 % 1034,3 hPa 0,0 l/m 2,0 km/h (1 Bft) S-SO 151 0 min 0 min 0,000 mm 0,0 UV-I 5 W/m 0,9 C 1,8 C 4,8 km/h (1 Bft)
25.01.2022 16:30 1,9 C 1,8 C 1,9 C 94 % 1034,3 hPa 0,0 l/m 1,0 km/h (0 Bft) S-SO 151 0 min 0 min 0,000 mm 0,0 UV-I 11 W/m 1,0 C 1,9 C 4,8 km/h (1 Bft)
25.01.2022 16:15 1,9 C 1,9 C 1,9 C 94 % 1034,3 hPa 0,0 l/m 0,7 km/h (0 Bft) S-SO 151 0 min 0 min 0,000 mm 0,0 UV-I 12 W/m 1,0 C 1,9 C 3,2 km/h (1 Bft)
25.01.2022 16:00 1,9 C 1,8 C 1,9 C 94 % 1034,3 hPa 0,0 l/m 1,1 km/h (1 Bft) S-SO 151 0 min 0 min 0,000 mm 0,0 UV-I 19 W/m 1,0 C 1,9 C 3,2 km/h (1 Bft)
25.01.2022 15:45 1,9 C 1,8 C 2,0 C 94 % 1034,4 hPa 0,0 l/m 1,1 km/h (1 Bft) S-SO 151 0 min 0 min 0,000 mm 0,0 UV-I 25 W/m 1,0 C 1,9 C 3,2 km/h (1 Bft)
25.01.2022 15:30 1,9 C 1,9 C 2,1 C 94 % 1034,4 hPa 0,0 l/m 0,5 km/h (0 Bft) S-SO 151 0 min 0 min 0,000 mm 0,0 UV-I 28 W/m 1,0 C 1,9 C 3,2 km/h (1 Bft)
25.01.2022 15:15 2,0 C 1,8 C 2,0 C 94 % 1034,3 hPa 0,0 l/m 0,4 km/h (0 Bft) S-SO 151 0 min 0 min 0,000 mm 0,0 UV-I 35 W/m 1,1 C 2,0 C 3,2 km/h (1 Bft)
25.01.2022 15:00 1,9 C 1,8 C 1,9 C 94 % 1034,5 hPa 0,0 l/m 1,1 km/h (1 Bft) S-SO 151 0 min 0 min 0,025 mm 0,0 UV-I 42 W/m 1,0 C 1,9 C 3,2 km/h (1 Bft)
25.01.2022 14:45 1,8 C 1,7 C 1,8 C 94 % 1034,5 hPa 0,0 l/m 1,3 km/h (1 Bft) S-SO 151 0 min 0 min 0,000 mm 0,0 UV-I 44 W/m 0,9 C 1,8 C 3,2 km/h (1 Bft)
25.01.2022 14:30 1,8 C 1,7 C 1,8 C 94 % 1034,5 hPa 0,0 l/m 1,8 km/h (1 Bft) S-SO 151 0 min 0 min 0,000 mm 0,0 UV-I 63 W/m 0,9 C 1,8 C 4,8 km/h (1 Bft)
25.01.2022 14:15 1,8 C 1,7 C 1,8 C 94 % 1034,7 hPa 0,0 l/m 1,6 km/h (1 Bft) S-SO 151 0 min 0 min 0,026 mm 0,0 UV-I 51 W/m 0,9 C 1,8 C 3,2 km/h (1 Bft)
25.01.2022 14:00 1,8 C 1,8 C 1,9 C 94 % 1034,7 hPa 0,0 l/m 2,4 km/h (1 Bft) S-SO 151 0 min 0 min 0,000 mm 0,0 UV-I 58 W/m 0,9 C 1,8 C 4,8 km/h (1 Bft)
25.01.2022 13:45 1,9 C 1,8 C 1,9 C 94 % 1034,8 hPa 0,0 l/m 2,3 km/h (1 Bft) S-SO 151 0 min 0 min 0,000 mm 0,0 UV-I 76 W/m 1,0 C 1,9 C 4,8 km/h (1 Bft)
25.01.2022 13:30 1,8 C 1,7 C 1,8 C 94 % 1034,8 hPa 0,0 l/m 2,0 km/h (1 Bft) S-SO 159 0 min 0 min 0,000 mm 0,0 UV-I 79 W/m 0,9 C 1,8 C 6,4 km/h (2 Bft)
25.01.2022 13:15 1,7 C 1,6 C 1,7 C 94 % 1035,0 hPa 0,0 l/m 1,2 km/h (1 Bft) S-SO 159 0 min 0 min 0,000 mm 0,0 UV-I 67 W/m 0,8 C 1,7 C 6,4 km/h (2 Bft)
25.01.2022 13:00 1,7 C 1,5 C 1,7 C 94 % 1035,1 hPa 0,0 l/m 0,7 km/h (0 Bft) S-SO 159 0 min 0 min 0,025 mm 0,0 UV-I 67 W/m 0,8 C 1,7 C 3,2 km/h (1 Bft)
25.01.2022 12:45 1,6 C 1,4 C 1,6 C 94 % 1035,0 hPa 0,0 l/m 0,5 km/h (0 Bft) S-SO 159 0 min 0 min 0,000 mm 0,0 UV-I 69 W/m 0,7 C 1,6 C 3,2 km/h (1 Bft)
25.01.2022 12:30 1,4 C 1,2 C 1,4 C 94 % 1035,1 hPa 0,0 l/m 0,4 km/h (0 Bft) S-SO 159 0 min 0 min 0,000 mm 0,0 UV-I 69 W/m 0,5 C 1,4 C 6,4 km/h (2 Bft)
25.01.2022 12:15 1,2 C 1,2 C 1,3 C 94 % 1035,3 hPa 0,0 l/m 0,0 km/h (0 Bft) S-SO 164 0 min 0 min 0,000 mm 0,0 UV-I 63 W/m 0,3 C 1,2 C 0,0 km/h (0 Bft)
25.01.2022 12:00 1,2 C 1,1 C 1,2 C 94 % 1035,4 hPa 0,0 l/m 0,0 km/h (0 Bft) S-SO 164 0 min 0 min 0,026 mm 0,0 UV-I 63 W/m 0,3 C 1,2 C 0,0 km/h (0 Bft)
25.01.2022 11:45 1,2 C 0,9 C 1,2 C 94 % 1035,4 hPa 0,0 l/m 0,0 km/h (0 Bft) S-SO 164 0 min 0 min 0,000 mm 0,0 UV-I 69 W/m 0,3 C 1,2 C 0,0 km/h (0 Bft)
25.01.2022 11:30 1,0 C 0,8 C 1,1 C 94 % 1035,4 hPa 0,0 l/m 0,0 km/h (0 Bft) S-SO 164 0 min 0 min 0,000 mm 0,0 UV-I 69 W/m 0,1 C 1,0 C 1,6 km/h (1 Bft)
25.01.2022 11:15 0,8 C 0,6 C 0,8 C 94 % 1035,4 hPa 0,0 l/m 1,3 km/h (1 Bft) S-SO 164 0 min 0 min 0,000 mm 0,0 UV-I 67 W/m -0,1 C 0,8 C 6,4 km/h (2 Bft)
25.01.2022 11:00 0,6 C 0,4 C 0,6 C 94 % 1035,3 hPa 0,0 l/m 1,5 km/h (1 Bft) S-SO 164 0 min 0 min 0,025 mm 0,0 UV-I 69 W/m -0,3 C 0,6 C 6,4 km/h (2 Bft)
25.01.2022 10:45 0,4 C 0,2 C 0,4 C 94 % 1035,2 hPa 0,0 l/m 0,7 km/h (0 Bft) S-SO 163 0 min 0 min 0,000 mm 0,0 UV-I 54 W/m -0,5 C 0,4 C 6,4 km/h (2 Bft)
25.01.2022 10:30 0,2 C 0,0 C 0,2 C 94 % 1035,2 hPa 0,0 l/m 1,2 km/h (1 Bft) S-SO 163 0 min 0 min 0,000 mm 0,0 UV-I 47 W/m -0,6 C 0,2 C 3,2 km/h (1 Bft)
25.01.2022 10:15 0,0 C -0,2 C 0,1 C 94 % 1035,1 hPa 0,0 l/m 1,4 km/h (1 Bft) S-SO 163 0 min 0 min 0,000 mm 0,0 UV-I 44 W/m -0,8 C 0,0 C 8,0 km/h (2 Bft)
25.01.2022 10:00 -0,2 C -0,3 C -0,2 C 94 % 1035,0 hPa 0,0 l/m 2,7 km/h (1 Bft) S 171 0 min 0 min 0,000 mm 0,0 UV-I 39 W/m -1,0 C -0,2 C 8,0 km/h (2 Bft)
25.01.2022 09:45 -0,3 C -0,4 C -0,3 C 94 % 1034,7 hPa 0,0 l/m 1,9 km/h (1 Bft) S-SW 212 0 min 0 min 0,000 mm 0,0 UV-I 37 W/m -1,1 C -0,3 C 4,8 km/h (1 Bft)
25.01.2022 09:30 -0,4 C -0,5 C -0,4 C 94 % 1034,8 hPa 0,0 l/m 1,2 km/h (1 Bft) S-SW 197 0 min 0 min 0,000 mm 0,0 UV-I 23 W/m -1,2 C -0,4 C 4,8 km/h (1 Bft)
25.01.2022 09:15 -0,5 C -0,6 C -0,5 C 94 % 1034,7 hPa 0,0 l/m 1,8 km/h (1 Bft) S-SW 197 0 min 0 min 0,000 mm 0,0 UV-I 18 W/m -1,3 C -0,5 C 4,8 km/h (1 Bft)
25.01.2022 09:00 -0,6 C -0,6 C -0,6 C 94 % 1034,7 hPa 0,0 l/m 1,2 km/h (1 Bft) S-SW 197 0 min 0 min 0,000 mm 0,0 UV-I 12 W/m -1,4 C -0,6 C 3,2 km/h (1 Bft)
25.01.2022 08:45 -0,6 C -0,7 C -0,6 C 94 % 1034,8 hPa 0,0 l/m 0,6 km/h (0 Bft) S-SW 197 0 min 0 min 0,000 mm 0,0 UV-I 9 W/m -1,4 C -0,6 C 3,2 km/h (1 Bft)
25.01.2022 08:30 -0,7 C -0,7 C -0,7 C 94 % 1034,9 hPa 0,0 l/m 0,5 km/h (0 Bft) S-SW 197 0 min 0 min 0,000 mm 0,0 UV-I 0 W/m -1,5 C -0,7 C 3,2 km/h (1 Bft)
25.01.2022 08:15 -0,7 C -0,8 C -0,7 C 94 % 1034,7 hPa 0,0 l/m 1,0 km/h (0 Bft) S-SW 197 0 min 0 min 0,000 mm 0,0 UV-I 0 W/m -1,5 C -0,7 C 3,2 km/h (1 Bft)
25.01.2022 08:00 -0,7 C -0,7 C -0,7 C 94 % 1034,7 hPa 0,0 l/m 2,9 km/h (1 Bft) S-SW 197 0 min 0 min 0,000 mm 0,0 UV-I 0 W/m -1,5 C -0,7 C 6,4 km/h (2 Bft)
25.01.2022 07:45 -0,7 C -0,7 C -0,6 C 94 % 1034,6 hPa 0,0 l/m 1,5 km/h (1 Bft) S 184 0 min 0 min 0,000 mm 0,0 UV-I 0 W/m -1,5 C -0,7 C 4,8 km/h (1 Bft)
25.01.2022 07:30 -0,7 C -0,8 C -0,7 C 94 % 1034,7 hPa 0,0 l/m 2,2 km/h (1 Bft) S 184 0 min 0 min 0,000 mm 0,0 UV-I 0 W/m -1,5 C -0,7 C 4,8 km/h (1 Bft)
25.01.2022 07:15 -0,8 C -0,8 C -0,7 C 93 % 1034,6 hPa 0,0 l/m 1,9 km/h (1 Bft) S 181 0 min 0 min 0,000 mm 0,0 UV-I 0 W/m -1,8 C -0,8 C 6,4 km/h (2 Bft)
25.01.2022 07:00 -0,7 C -0,7 C -0,6 C 93 % 1034,6 hPa 0,0 l/m 1,0 km/h (0 Bft) SO 126 0 min 0 min 0,000 mm 0,0 UV-I 0 W/m -1,7 C -0,7 C 3,2 km/h (1 Bft)
25.01.2022 06:45 -0,6 C -0,6 C -0,6 C 93 % 1034,6 hPa 0,0 l/m 1,2 km/h (1 Bft) SO 126 0 min 0 min 0,000 mm 0,0 UV-I 0 W/m -1,6 C -0,6 C 3,2 km/h (1 Bft)
25.01.2022 06:30 -0,6 C -0,6 C -0,5 C 93 % 1034,6 hPa 0,0 l/m 0,5 km/h (0 Bft) SO 126 0 min 0 min 0,000 mm 0,0 UV-I 0 W/m -1,6 C -0,6 C 3,2 km/h (1 Bft)
25.01.2022 06:15 -0,5 C -0,6 C -0,4 C 93 % 1034,6 hPa 0,0 l/m 0,7 km/h (0 Bft) SO 126 0 min 0 min 0,000 mm 0,0 UV-I 0 W/m -1,5 C -0,5 C 3,2 km/h (1 Bft)
25.01.2022 06:00 -0,5 C -0,6 C -0,4 C 93 % 1034,7 hPa 0,0 l/m 0,1 km/h (0 Bft) SO 126 0 min 0 min 0,000 mm 0,0 UV-I 0 W/m -1,5 C -0,5 C 1,6 km/h (1 Bft)
25.01.2022 05:45 -0,5 C -0,5 C -0,3 C 93 % 1034,7 hPa 0,0 l/m 0,7 km/h (0 Bft) SO 126 0 min 0 min 0,000 mm 0,0 UV-I 0 W/m -1,5 C -0,5 C 3,2 km/h (1 Bft)
25.01.2022 05:30 -0,3 C -0,3 C -0,3 C 93 % 1034,8 hPa 0,0 l/m 0,5 km/h (0 Bft) SO 126 0 min 0 min 0,000 mm 0,0 UV-I 0 W/m -1,3 C -0,3 C 4,8 km/h (1 Bft)
25.01.2022 05:15 -0,3 C -0,3 C -0,3 C 93 % 1034,8 hPa 0,0 l/m 1,9 km/h (1 Bft) SO 126 0 min 0 min 0,000 mm 0,0 UV-I 0 W/m -1,3 C -0,3 C 4,8 km/h (1 Bft)
25.01.2022 05:00 -0,3 C -0,4 C -0,3 C 93 % 1035,0 hPa 0,0 l/m 1,4 km/h (1 Bft) SO 126 0 min 0 min 0,000 mm 0,0 UV-I 0 W/m -1,3 C -0,3 C 3,2 km/h (1 Bft)
25.01.2022 04:45 -0,3 C -0,4 C -0,3 C 93 % 1034,8 hPa 0,0 l/m 0,8 km/h (0 Bft) SO 126 0 min 0 min 0,000 mm 0,0 UV-I 0 W/m -1,3 C -0,3 C 3,2 km/h (1 Bft)
25.01.2022 04:30 -0,4 C -0,4 C -0,4 C 93 % 1035,0 hPa 0,0 l/m 0,0 km/h (0 Bft) SO 126 0 min 0 min 0,000 mm 0,0 UV-I 0 W/m -1,4 C -0,4 C 0,0 km/h (0 Bft)
25.01.2022 04:15 -0,4 C -0,5 C -0,4 C 93 % 1035,2 hPa 0,0 l/m 0,0 km/h (0 Bft) SO 126 0 min 0 min 0,000 mm 0,0 UV-I 0 W/m -1,4 C -0,4 C 0,0 km/h (0 Bft)
25.01.2022 04:00 -0,5 C -0,6 C -0,4 C 93 % 1035,2 hPa 0,0 l/m 0,0 km/h (0 Bft) SO 126 0 min 0 min 0,000 mm 0,0 UV-I 0 W/m -1,5 C -0,5 C 0,0 km/h (0 Bft)
25.01.2022 03:45 -0,6 C -0,7 C -0,6 C 92 % 1035,2 hPa 0,0 l/m 0,0 km/h (0 Bft) SO 126 0 min 0 min 0,000 mm 0,0 UV-I 0 W/m -1,7 C -0,6 C 0,0 km/h (0 Bft)
25.01.2022 03:30 -0,7 C -0,8 C -0,7 C 92 % 1035,3 hPa 0,0 l/m 0,0 km/h (0 Bft) SO 126 0 min 0 min 0,000 mm 0,0 UV-I 0 W/m -1,8 C -0,7 C 0,0 km/h (0 Bft)
25.01.2022 03:15 -0,8 C -1,1 C -0,8 C 92 % 1035,4 hPa 0,0 l/m 0,0 km/h (0 Bft) SO 126 0 min 0 min 0,000 mm 0,0 UV-I 0 W/m -1,9 C -0,8 C 0,0 km/h (0 Bft)
25.01.2022 03:00 -1,1 C -1,3 C -1,1 C 92 % 1035,3 hPa 0,0 l/m 0,0 km/h (0 Bft) SO 126 0 min 0 min 0,000 mm 0,0 UV-I 0 W/m -2,2 C -1,1 C 0,0 km/h (0 Bft)
_ Min-Zeit 03:00 03:00 03:00 03:00 00:00 - 03:00 - - - - - - - 03:00 03:00 03:00
Minimum _ -1,1 C -1,3 C -1,1 C 92 % 1034,0 hPa - 0,0 km/h (0 Bft) - - - - - - - -2,2 C -1,1 C 0,0 km/h (0 Bft)
_ Max-Zeit 15:30 15:30 15:30 07:30 03:15 03:00 02:00 - - 03:00 03:00 12:00 03:00 13:30 15:15 15:15 01:15
Maximum _ 2,1 C 1,9 C 2,1 C 94 % 1035,4 hPa 0,0 l/m 3,8 km/h
NW (1 Bft)
- - 0 min 0 min 0,026 mm 0,0 UV-I 79 W/m 1,1 C 2,0 C 14,5 km/h
NW (3 Bft)
Durchschnitt _ 0,7 C 0,6 C 0,7 C 94 % 1034,7 hPa #0,0 l/m 1,2 km/h (1 Bft) S-SO - #0 min. #0 min. #0,000 mm 0,0 UV-I 0 W/m -0,2 C 0,7 C 4,0 km/h (1 Bft)